This is the latest recevied weather packets stored in our database for station/object K6LCM-13. If no packets are shown the sender has not sent any weather packets the latest 10 day(s).
| Time | Temp. | Humidity | Pressure | Rain* | Wind** | Luminosity | Snow |
|---|---|---|---|---|---|---|---|
| 1777378963 | 10.56° C | 90% | 1016.5 hPa | 0 mm | - | - | - |
| 1777378422 | 10.56° C | 90% | 1016.6 hPa | 0 mm | - | - | - |
| 1777377883 | 10.56° C | 90% | 1016.6 hPa | 0 mm | - | - | - |
| 1777377343 | 11.11° C | 90% | 1016.6 hPa | 0 mm | - | - | - |
| 1777376803 | 11.11° C | 90% | 1016.8 hPa | 0 mm | - | - | - |
| 1777376262 | 11.11° C | 90% | 1016.8 hPa | 0 mm | - | - | - |
| 1777375723 | 11.11° C | 90% | 1016.8 hPa | 0 mm | - | - | - |
| 1777375182 | 11.11° C | 89% | 1016.7 hPa | 0 mm | - | - | - |
| 1777374643 | 11.11° C | 89% | 1016.8 hPa | 0 mm | - | - | - |
| 1777373563 | 11.67° C | 89% | 1016.8 hPa | 0 mm | - | - | - |
| 1777373022 | 11.67° C | 88% | 1016.7 hPa | 0 mm | - | - | - |
| 1777372483 | 11.67° C | 87% | 1016.8 hPa | 0 mm | - | - | - |
| 1777371942 | 11.67° C | 87% | 1016.7 hPa | 0 mm | - | - | - |
| 1777371403 | 11.67° C | 86% | 1016.7 hPa | 0 mm | - | - | - |
| 1777370862 | 11.67° C | 86% | 1016.8 hPa | 0 mm | - | - | - |
| 1777370206 | 11.67° C | 86% | 1016.8 hPa | 0 mm | - | - | - |
| 1777369666 | 11.67° C | 86% | 1016.9 hPa | 0 mm | - | - | - |
| 1777369126 | 12.22° C | 86% | 1017.1 hPa | 0 mm | - | - | - |
| 1777368586 | 12.22° C | 86% | 1017.1 hPa | 0 mm | - | - | - |
| 1777368046 | 12.22° C | 86% | 1017.3 hPa | 0 mm | - | - | - |
| 1777367506 | 12.22° C | 86% | 1017.4 hPa | 0 mm | - | - | - |
| 1777366966 | 11.67° C | 86% | 1017.3 hPa | 0 mm | - | - | - |
| 1777366426 | 11.67° C | 85% | 1017.4 hPa | 0 mm | - | - | - |
| 1777365886 | 11.67° C | 84% | 1017.4 hPa | 0 mm | - | - | - |
| 1777365346 | 11.11° C | 82% | 1017.4 hPa | 0 mm | - | - | - |
* Rain latest hour (hover to see other rain measurements)
** Current wind speed in m/s (hover to see current wind gust speed)